Location: Gleizolles
(44.4833°N, 6.7667°E)
Time: 12:09:14
(UTC+00:00)

A-11 Canister half - Pass Details

Date: 16 June 2024
Orbit: 1515 x 1684 km, 47.2° (Epoch: 24 July)

Event Time Altitude Azimuth Distance (km) Brightness Sun altitude
Rises 23:48:32 0° 289° (WNW) 4,852 11.8 -22.1°
Reaches altitude 10° 23:51:42 10° 289° (WNW) 3,842 11.2 -22.0°
Maximum altitude 00:01:28 84° 204° (SSW) 1,583 8.9 -21.9°
Drops below altitude 10° 00:10:53 10° 117° (ESE) 3,706 10.8 -21.6°
Sets 00:13:52 0° 116° (ESE) 4,673 11.4 -21.5°
